PAF5320 RPLS-RPUF

Flight info

Callsign PAF5320
Flight time 1h 2m
Altitude 8500
Route VFR TMA
Aircraft C208/L-SDFGR/C

Departure

Time 2026-05-04 09:44
Airport Danilo Atienza Air Base (RPLS)

Arrival

Time 2026-05-04 10:46
Airport Basa Air Base (RPUF)
Time Latitude Longitude Altitude Speed Heading
2026-05-04 09:34 14.49032 120.89521 22 ft 0 kts 158°
2026-05-04 09:40 14.49027 120.89520 24 ft 3 kts 204°
2026-05-04 09:40 14.49042 120.89499 22 ft 8 kts 331°
2026-05-04 09:41 14.49078 120.89434 22 ft 14 kts 245°
2026-05-04 09:42 14.49141 120.89429 24 ft 6 kts 68°
2026-05-04 09:43 14.49205 120.89592 23 ft 46 kts 69°
2026-05-04 09:43 14.49382 120.90015 49 ft 76 kts 66°
2026-05-04 09:43 14.49578 120.90516 247 ft 75 kts 70°
2026-05-04 09:43 14.49791 120.91022 430 ft 79 kts 69°
2026-05-04 09:44 14.50043 120.91543 710 ft 84 kts 55°
2026-05-04 09:44 14.50802 120.91859 872 ft 100 kts
2026-05-04 09:44 14.51325 120.91775 879 ft 121 kts 347°
2026-05-04 09:46 14.55996 120.87182 1681 ft 152 kts 12°
2026-05-04 09:46 14.57046 120.87320 1764 ft 153 kts
2026-05-04 09:46 14.58112 120.87424 1840 ft 154 kts
2026-05-04 09:47 14.59170 120.87510 1892 ft 155 kts
2026-05-04 09:47 14.60253 120.87561 1919 ft 156 kts
2026-05-04 09:49 14.67791 120.87168 2209 ft 150 kts
2026-05-04 09:49 14.68810 120.87088 2372 ft 148 kts
2026-05-04 09:49 14.69828 120.87008 2536 ft 146 kts
2026-05-04 09:51 14.75925 120.85078 3513 ft 171 kts 342°
2026-05-04 09:51 14.77033 120.84605 3536 ft 171 kts 341°
2026-05-04 09:51 14.78119 120.84124 3559 ft 168 kts 341°
2026-05-04 09:51 14.79183 120.83659 3543 ft 165 kts 341°
2026-05-04 09:52 14.80216 120.83205 3495 ft 161 kts 341°
2026-05-04 09:52 14.81236 120.82754 3488 ft 158 kts 341°
2026-05-04 09:52 14.82240 120.82303 3526 ft 158 kts 340°
2026-05-04 09:52 14.83254 120.81837 3577 ft 161 kts 341°
2026-05-04 09:53 14.84290 120.81375 3582 ft 162 kts 340°
2026-05-04 09:53 14.85360 120.81149 3599 ft 157 kts 15°
2026-05-04 09:53 14.86426 120.81395 3600 ft 157 kts 17°
2026-05-04 09:53 14.87500 120.81631 3595 ft 158 kts 17°
2026-05-04 09:54 14.88572 120.81796 3552 ft 158 kts
2026-05-04 09:54 14.89597 120.81694 3558 ft 161 kts
2026-05-04 09:54 14.90732 120.81597 3532 ft 165 kts
2026-05-04 09:54 14.91869 120.81504 3566 ft 159 kts
2026-05-04 09:55 14.92957 120.81417 3794 ft 156 kts
2026-05-04 09:55 14.94022 120.81322 3992 ft 151 kts
2026-05-04 09:55 14.95060 120.81225 4161 ft 148 kts
2026-05-04 09:55 14.96068 120.81137 4371 ft 147 kts
2026-05-04 09:56 14.97081 120.81048 4556 ft 145 kts
2026-05-04 09:56 14.98094 120.80957 4748 ft 143 kts 360°
2026-05-04 09:56 14.99084 120.80878 4968 ft 146 kts
2026-05-04 09:56 15.00090 120.80790 5136 ft 144 kts 360°
2026-05-04 09:57 15.01088 120.80707 5314 ft 144 kts
2026-05-04 09:57 15.02101 120.80628 5447 ft 149 kts
2026-05-04 09:57 15.03155 120.80543 5490 ft 155 kts
2026-05-04 09:57 15.04254 120.80448 5514 ft 161 kts 359°
2026-05-04 09:58 15.05386 120.80367 5556 ft 165 kts
2026-05-04 09:58 15.06530 120.80297 5567 ft 164 kts
2026-05-04 09:58 15.07662 120.80233 5537 ft 161 kts
2026-05-04 10:00 15.15373 120.80212 5533 ft 164 kts
2026-05-04 10:00 15.16513 120.80298 5546 ft 164 kts 14°
2026-05-04 10:02 15.23251 120.84338 5523 ft 154 kts 35°
2026-05-04 10:04 15.28945 120.88465 5331 ft 138 kts 35°
2026-05-04 10:04 15.29738 120.89036 5378 ft 135 kts 35°
2026-05-04 10:04 15.30502 120.89583 5223 ft 134 kts 36°
2026-05-04 10:04 15.31280 120.90148 5084 ft 138 kts 35°
2026-05-04 10:05 15.32071 120.90713 4928 ft 137 kts 36°
2026-05-04 10:05 15.32852 120.91283 4750 ft 138 kts 33°
2026-05-04 10:05 15.33636 120.91852 4574 ft 137 kts 35°
2026-05-04 10:05 15.34422 120.92422 4396 ft 138 kts 36°
2026-05-04 10:06 15.35202 120.93006 4244 ft 139 kts 35°
2026-05-04 10:06 15.35999 120.93570 4048 ft 137 kts 37°
2026-05-04 10:06 15.36790 120.94128 3900 ft 137 kts 37°
2026-05-04 10:08 15.41139 120.97301 3563 ft 125 kts 37°
2026-05-04 10:08 15.41845 120.97824 3546 ft 124 kts 38°
2026-05-04 10:08 15.42560 120.98327 3567 ft 125 kts 37°
2026-05-04 10:08 15.43290 120.98835 3568 ft 127 kts 38°
2026-05-04 10:09 15.44020 120.99366 3587 ft 128 kts 38°
2026-05-04 10:09 15.44740 120.99901 3541 ft 126 kts 38°
2026-05-04 10:09 15.45400 121.00491 3492 ft 126 kts 59°
2026-05-04 10:09 15.45471 121.01354 3453 ft 131 kts 102°
2026-05-04 10:10 15.45167 121.02248 3509 ft 132 kts 107°
2026-05-04 10:10 15.44833 121.03133 3510 ft 133 kts 107°
2026-05-04 10:10 15.44495 121.03992 3431 ft 125 kts 108°
2026-05-04 10:10 15.44175 121.04839 3235 ft 127 kts 110°
2026-05-04 10:11 15.43761 121.05650 3059 ft 124 kts 114°
2026-05-04 10:11 15.43372 121.06431 2804 ft 122 kts 107°
2026-05-04 10:11 15.43128 121.07246 2607 ft 113 kts 104°
2026-05-04 10:11 15.42887 121.07968 2401 ft 100 kts 105°
2026-05-04 10:12 15.42645 121.08596 2250 ft 81 kts 110°
2026-05-04 10:12 15.42432 121.09140 1957 ft 82 kts 106°
2026-05-04 10:12 15.42210 121.09629 1652 ft 73 kts 128°
2026-05-04 10:12 15.41644 121.09709 1587 ft 103 kts 187°
2026-05-04 10:13 15.41018 121.09260 1576 ft 116 kts 223°
2026-05-04 10:13 15.40541 121.08566 1675 ft 115 kts 229°
2026-05-04 10:13 15.40048 121.07921 1738 ft 116 kts 223°
2026-05-04 10:13 15.39546 121.07256 1722 ft 122 kts 233°
2026-05-04 10:14 15.39332 121.06388 1552 ft 130 kts 272°
2026-05-04 10:14 15.39636 121.05534 1395 ft 119 kts 314°
2026-05-04 10:16 15.42288 121.04739 1118 ft 72 kts 52°
2026-05-04 10:16 15.42445 121.04929 1077 ft 71 kts 69°
2026-05-04 10:16 15.42527 121.05411 1115 ft 73 kts 104°
2026-05-04 10:17 15.42219 121.05849 1043 ft 76 kts 129°
2026-05-04 10:17 15.41870 121.06236 1001 ft 71 kts 121°
2026-05-04 10:19 15.43539 121.09183 318 ft 63 kts 53°
2026-05-04 10:19 15.43846 121.09507 425 ft 64 kts 52°
2026-05-04 10:19 15.44140 121.09863 487 ft 73 kts 57°
2026-05-04 10:19 15.44516 121.10345 664 ft 94 kts 56°
2026-05-04 10:20 15.44980 121.10828 1077 ft 96 kts 48°
2026-05-04 10:20 15.45491 121.11317 1335 ft 104 kts 44°
2026-05-04 10:20 15.46033 121.11808 1674 ft 107 kts 32°
2026-05-04 10:20 15.46827 121.11869 1719 ft 127 kts 357°
2026-05-04 10:21 15.47646 121.11535 1885 ft 132 kts 326°
2026-05-04 10:21 15.48396 121.10943 2099 ft 137 kts 323°
2026-05-04 10:21 15.49168 121.10346 2343 ft 140 kts 332°
2026-05-04 10:21 15.49911 121.09690 2483 ft 149 kts 297°
2026-05-04 10:22 15.49265 121.07932 3142 ft 128 kts 227°
2026-05-04 10:22 15.48866 121.07146 3480 ft 120 kts 252°
2026-05-04 10:22 15.48667 121.06334 3826 ft 113 kts 263°
2026-05-04 10:23 15.48563 121.05523 4127 ft 111 kts 269°
2026-05-04 10:23 15.48486 121.04732 4368 ft 111 kts 271°
2026-05-04 10:25 15.47828 120.99380 6181 ft 106 kts 272°
2026-05-04 10:25 15.47790 120.98595 6388 ft 115 kts 270°
2026-05-04 10:25 15.47733 120.97715 6486 ft 131 kts 272°
2026-05-04 10:25 15.47669 120.96714 6536 ft 147 kts 272°
2026-05-04 10:26 15.47346 120.95643 6559 ft 165 kts 248°
2026-05-04 10:26 15.46747 120.94588 6563 ft 175 kts 239°
2026-05-04 10:26 15.46012 120.93553 6537 ft 180 kts 237°
2026-05-04 10:26 15.45227 120.92528 6526 ft 182 kts 236°
2026-05-04 10:27 15.44449 120.91510 6511 ft 182 kts 236°
2026-05-04 10:27 15.43694 120.90460 6521 ft 182 kts 238°
2026-05-04 10:27 15.42949 120.89400 6499 ft 181 kts 238°
2026-05-04 10:27 15.42202 120.88350 6482 ft 180 kts 237°
2026-05-04 10:28 15.41437 120.87325 6480 ft 179 kts 236°
2026-05-04 10:28 15.40680 120.86305 6495 ft 180 kts 237°
2026-05-04 10:28 15.40183 120.85620 6496 ft 179 kts 237°
2026-05-04 10:28 15.39436 120.84591 6494 ft 178 kts 236°
2026-05-04 10:29 15.38447 120.83215 6500 ft 178 kts 236°
2026-05-04 10:29 15.37959 120.82534 6497 ft 178 kts 236°
2026-05-04 10:29 15.36974 120.81180 6499 ft 178 kts 235°
2026-05-04 10:29 15.36224 120.80161 6504 ft 178 kts 235°
2026-05-04 10:30 15.35720 120.79471 6499 ft 177 kts 235°
2026-05-04 10:30 15.34977 120.78450 6505 ft 178 kts 235°
2026-05-04 10:30 15.34235 120.77423 6525 ft 179 kts 234°
2026-05-04 10:30 15.33491 120.76391 6565 ft 183 kts 233°
2026-05-04 10:31 15.32717 120.75333 6564 ft 185 kts 233°
2026-05-04 10:31 15.31934 120.74275 6573 ft 186 kts 233°
2026-05-04 10:32 15.27458 120.68123 6408 ft 150 kts 233°
2026-05-04 10:33 15.26844 120.67265 6302 ft 145 kts 234°
2026-05-04 10:33 15.26257 120.66435 6170 ft 141 kts 234°
2026-05-04 10:33 15.25678 120.65618 6045 ft 140 kts 233°
2026-05-04 10:33 15.25088 120.64818 5961 ft 139 kts 233°
2026-05-04 10:34 15.24499 120.64016 5873 ft 140 kts 232°
2026-05-04 10:34 15.23907 120.63236 5760 ft 139 kts 231°
2026-05-04 10:34 15.23313 120.62442 5672 ft 142 kts 231°
2026-05-04 10:34 15.22678 120.61569 5617 ft 160 kts 233°
2026-05-04 10:35 15.22001 120.60606 5570 ft 167 kts 233°
2026-05-04 10:35 15.21326 120.59661 5454 ft 159 kts 232°
2026-05-04 10:35 15.20672 120.58757 5337 ft 156 kts 233°
2026-05-04 10:35 15.20006 120.57869 5255 ft 155 kts 231°
2026-05-04 10:36 15.19348 120.56991 5120 ft 153 kts 231°
2026-05-04 10:36 15.18715 120.56104 5013 ft 154 kts 233°
2026-05-04 10:36 15.18040 120.55241 4899 ft 154 kts 218°
2026-05-04 10:36 15.17100 120.54741 4812 ft 150 kts 193°
2026-05-04 10:37 15.16140 120.54335 4704 ft 152 kts 210°
2026-05-04 10:37 15.15367 120.53698 4411 ft 141 kts 215°
2026-05-04 10:37 15.14626 120.53021 4038 ft 142 kts 219°
2026-05-04 10:37 15.13889 120.52353 3763 ft 136 kts 217°
2026-05-04 10:39 15.08825 120.50299 3156 ft 141 kts 193°
2026-05-04 10:39 15.07882 120.49966 3190 ft 147 kts 196°
2026-05-04 10:39 15.06929 120.49598 3141 ft 149 kts 199°
2026-05-04 10:40 15.06006 120.49236 2876 ft 139 kts 197°
2026-05-04 10:40 15.05132 120.48869 2650 ft 134 kts 200°
2026-05-04 10:40 15.04307 120.48501 2497 ft 128 kts 200°
2026-05-04 10:40 15.03498 120.48177 2296 ft 118 kts 199°
2026-05-04 10:41 15.02840 120.47886 2274 ft 95 kts 202°
2026-05-04 10:41 15.02264 120.47539 2098 ft 93 kts 210°
2026-05-04 10:41 15.01720 120.47189 2097 ft 100 kts 204°
2026-05-04 10:41 15.01332 120.46960 2210 ft 105 kts 205°
2026-05-04 10:42 15.00840 120.46683 2294 ft 113 kts 205°
2026-05-04 10:42 15.00148 120.46283 2367 ft 116 kts 207°
2026-05-04 10:42 15.00118 120.46266 2366 ft 117 kts 207°
2026-05-04 10:42 14.99517 120.45924 2453 ft 117 kts 205°
2026-05-04 10:43 14.98821 120.45542 2390 ft 110 kts 205°
2026-05-04 10:44 14.94875 120.46148 1687 ft 80 kts 115°
2026-05-04 10:45 14.94814 120.46750 1555 ft 92 kts 75°
2026-05-04 10:45 14.95168 120.47337 1381 ft 94 kts 48°
2026-05-04 10:45 14.95678 120.47694 1059 ft 85 kts 36°
2026-05-04 10:45 14.96200 120.47970 766 ft 85 kts 28°
2026-05-04 10:46 14.96691 120.48219 490 ft 78 kts 35°
2026-05-04 10:46 14.97214 120.48502 340 ft 88 kts 32°
2026-05-04 10:46 14.97737 120.48776 176 ft 76 kts 32°
2026-05-04 10:46 14.98109 120.48969 165 ft 48 kts 26°
2026-05-04 10:47 14.98366 120.49105 164 ft 25 kts 21°
2026-05-04 10:47 14.98428 120.49133 165 ft 7 kts 256°
2026-05-04 10:47 14.98368 120.49120 164 ft 9 kts 141°
2026-05-04 10:47 14.98335 120.49176 165 ft 9 kts 115°
2026-05-04 10:49 14.98107 120.49337 167 ft 0 kts 245°